User: anonymous   Login
Location: Bucharest
(44.4268°N, 26.1025°E)
Time: 05:00:17
(UTC+03:00)
Language:

CUTE 1.7 + AOD 2 - Orbit

View from above orbital plane
View from above orbital plane
View from above satellite
View from above satellite

Ground track
Ground track

The orbit data is extracted from the following two-line orbital elements,

1 32785U 08021C   22180.45431763  .00000903  00000-0  99991-4 0  9995
2 32785  97.6578 150.9228 0012251 186.7613 173.3441 14.89626151768275
Epoch (UTC): 29 June 2022 10:54:13
Eccentricity: 0.0012251
inclination: 97.6578°
perigee height: 590 km
apogee height: 607 km
right ascension of ascending node: 150.9228°
argument of perigee: 186.7613°
revolutions per day: 14.89626151
mean anomaly at epoch: 173.3441°
orbit number at epoch: 76827

The dashed part of the orbit path shows where the satellite is in the earth's shadow,  

DLR